Accueil
METAR-TAF:

METAR-TAF

Aéroports :

Alpnach, Suisse

latitude: 46-56-19N, longitude: 8-17-03E, altitude: 440 m

Observation

Le bulletin a été fait il y a 10 minutes, à 16:50 UTC
Vent 6 kt de est/nord-est avec des rafales jusqu'à 19 kt, variant entre nord et sud-est
Température 4°C
Humidité 81%
Pression 1020 hPa
Visibilité 10 km ou plus
Nuages fragmentés à une hauteur de 1900 ft
Nuages fragmentés à une hauteur de 2300 ft
Ciel couvert à une hauteur de 4100 ft

METAR: LSMA 011650Z AUTO 07006G19KT 360V130 9999NDV BKN019 BKN023 OVC041 04/01 Q1020 RMK

Heure: 18:00 (17:00 UTC)


TAF: absent

Observations et prévisions météorologiques de plus de 4000 aéroports (messages METAR et TAF).

Les stations disponibles sont représentées par des disques jaunes et rouges sur la carte.

Passer la souris dessus pour voir le nom de la station.

Cliquer dessus pour voir les observations et prévisions météorologiques.

Pour changer de carte: cliquez sur les boutons verts avec une croix noire pour zoomer, sur le bouton vert avec un tiret pour effectuer un zoom arrière, ou sur les flèches vertes pour les cartes adjacentes.


METAR-TAF: